STARLINK-1280, 45388

Orbit data source: Space-Track

STARLINK-1280, 45388 is a payload satellite owned by SpaceX/Seattle (US) in LEO that was launched on Wed, 18 Mar 2020 UTC via an FALCON 9 launch vehicle from the Air Force Eastern Test Range (AFETR). Payload-class satellites include a variety of spacecraft equipped with specific instruments for various scientific and technological missions. These include communications satellites like Starlink; space stations such as the ISS; scientific satellites like the Hubble; Earth observation satellites from companies like Planet Labs, Umbra, and HawkEye 360; GPS; miniature CubeSats for education and research; and military/defense satellites.

Loading next visibility...
Identifier
45388, 2020-019AE
Orbit
LEO
Country
Flag of USUS
Related business
Manufacturer
SpaceX/Seattle
Mission
Partially operational Commercial Communications
Bus & Motor
STARLINK, Unknown motor
Mass
260 kg wet, ~248 kg dry
Launch date (UTC)
2020-03-18 (6 years ago)
Launch vehicle
FALCON 9
Launch site
Air Force Eastern Test Range (AFETR)
Object type
Payload
Rocket body
Debris
Shape & HBR
Box + 1 Pan, 10.1 m
Radar Cross Section
13.562 m², Large (>1 m²)

Expand to show TLE details & history
Last TLE update: 5 hours ago

TLE from 5 hours ago
0 STARLINK-1280
1 45388U 20019AE  25304.63417463  .00082914  00000-0  20960-2 0  9991
2 45388  53.0555  23.3012 0001892  32.2564 327.8555 15.39093745310304
Epoch: 2025-10-31T15:13Z
TLE epoch observation values (Epoch: 2025-10-31T15:13:12.688Z)
Latitude
0.00003°
Longitude
114.82256°
Altitude
448.586 km
Speed
7.645 km/s
True Right ascension
01h 33m 12s
True Declination
0° 00' 00"
Sunlit
Object was in full shadow at epoch
Visualization orbit readout
Latitude
Unknown
Longitude
Unknown
Altitude
Unknown
Speed
Unknown
Apparent Right ascension
Unknown
Apparent Declination
Unknown
Sunlit
N/A
Visualization observer readout
Local Sidereal Time
16:13:01
Azimuth
Unknown
Elevation
Unknown
Doppler factor
Unknown
Orbital elements
Apogee altitude
450.354 km
Perigee altitude
447.771 km
Semi-major axis
6,827.199 km
Eccentricity
0.00019
Inclination
53.0555°
RAAN
23.3012°
Arg. of periapsis
32.2564°
True anomaly
327.84396°
Mean anomaly
327.8555°
Eccentric anomaly
327.84973°
Mean motion
3.84751 °/min
Orbital period
93.57 mins
BSTAR
0.002096
Loading maneuver chart data...
Computing Atmospheric mass density...
Loading historical data...
Loading historical data...
Loading historical data...
Loading historical data...
Loading historical data...
Loading historical data...
Loading historical data...

Documentation

Showing up to 5 results
|